Weather Roundup
Issued by NWS

Home | Current Version | Previous Version | Graphics & Text | Print | Product List | Glossary Off
Versions: 1 2 3 4 5 6 7 8 9 10 11 12 13 14 15 16 17 18 19 20 21 22 23 24 25 26 27 28 29 30 31 32 33 34 35 36 37 38 39 40 41 42 43 44 45 46 47 48 49 50

000
NZUS93 KARX 190559
HRRWXR

CURRENT HOURLY OBSERVATIONS ACROSS
MUCH OF THE UPPER MISSISSIPPI VALLEY
NATIONAL WEATHER SERVICE LA CROSSE WI
100 AM CDT SUN APR 19 2015


...SOUTHEAST MINNESOTA...


CITY           SKY/WX    TMP DP  RH WIND       PRES   REMARKS
ROCHESTER      CLOUDY    53  42  66 E17G26    29.85F
ROCHESTER/MAYO CLOUDY    55  41  60 E13G21    29.85F
WINONA         RAIN      54  41  62 CALM      29.95S
AUSTIN         FAIR      54  50  87 SE15      29.83S
ALBERT LEA     MOCLDY    57  52  82 SE14      29.82S
DODGE CENTER   CLOUDY    54  46  76 E13       29.85S
PRESTON        CLOUDY    52  44  75 SE9G25    29.89F
OWATONNA       FAIR      55  46  71 E15       29.82F
FARIBAULT      MOCLDY    52  46  82 E9G16     29.82F
$$

...ELSEWHERE IN MINNESOTA...


CITY           SKY/WX    TMP DP  RH WIND       PRES   REMARKS
MINNEAPOLIS    LGT RAIN  51  45  79 E15       29.84F
INTNL FALLS    FAIR      45  24  43 E7        29.91F
DULUTH         CLOUDY    41  27  57 E14       29.95F
RED WING       CLOUDY    52  39  62 E9G17     29.87F
REDWOOD FALLS  LGT RAIN  56  53  90 SE15      29.78F
MANKATO        CLOUDY    55  45  67 SE20      29.80S
WORTHINGTON    CLOUDY    54  52  94 S10       29.79F
FAIRMONT       CLOUDY    55  45  67 SE10      29.80S
$$

...SOUTHWEST WISCONSIN...


CITY           SKY/WX    TMP DP  RH WIND       PRES   REMARKS
LA CROSSE      LGT RAIN  58  32  37 SE9       29.96R
PRAIRIE DU CHI MOCLDY    61  31  32 SE6       29.92F
BOSCOBEL       CLOUDY    56  31  38 N5        29.94R
LONE ROCK      NOT AVBL
PLATTEVILLE    CLOUDY    55  32  41 E15       29.92F
FORT MC COY    MOCLDY    47  36  63 E8        29.95F
VIROQUA        CLOUDY    53  29  39 SW7       29.95R
WIS DELLS      FAIR      47  27  46 E9        29.97S
$$

...ELSEWHERE IN WISCONSIN...


CITY           SKY/WX    TMP DP  RH WIND       PRES   REMARKS
MILWAUKEE      FAIR      46  30  53 E10       30.01F
MADISON        MOCLDY    50  30  46 E7        29.96F
GREEN BAY      FAIR      44  30  57 NE7       30.04F
EAU CLAIRE     NOT AVBL
BLACK RVR FLS  CLOUDY    53  21  28 E9G20     29.94F
MEDFORD        MOCLDY    47  19  32 E10G20    29.98F
WAUSAU         MOCLDY    48  21  34 E17G26    29.99F
WIS RAPIDS     FAIR      48  22  35 E13G18    29.99F
MARSHFIELD     FAIR      48  23  37 E14       29.96F
RICE LAKE      RAIN      53  22  29 SE15      29.99R
$$

...NORTHEAST IOWA...


CITY           SKY/WX    TMP DP  RH WIND       PRES   REMARKS
DECORAH        CLOUDY    52  46  82 E14       29.89F
MASON CITY     MOCLDY    56  50  81 SE12      29.84S
CHARLES CITY   CLOUDY    55  52  88 E16G22    29.85S
OELWEIN        CLOUDY    55  48  76 E12G18    29.86S
$$

...ELSEWHERE IN IOWA...


CITY           SKY/WX    TMP DP  RH WIND       PRES   REMARKS
DES MOINES     CLOUDY    59  56  89 SE7       29.82F
IOWA CITY      FAIR      59  50  72 E10       29.84F
FORT DODGE     CLOUDY    57  54  88 SE13      29.81F
$$

...NORTHERN ILLINOIS...


CITY           SKY/WX    TMP DP  RH WIND       PRES   REMARKS
CHICAGO-OHARE  MOCLDY    53  37  54 E7        29.95F
CHICAGO-MIDWAY MOCLDY    55  36  48 E9        29.96F
MOLINE         FAIR      56  37  49 E15       29.86F
ROCKFORD       MOCLDY    54  34  46 E14       29.95S
PEORIA         FAIR      60  46  59 E12       29.87F
$$

NOTE: "FAIR" INDICATES FEW OR NO CLOUDS BELOW 12,000 FEET WITH NO
SIGNIFICANT WEATHER AND/OR OBSTRUCTIONS TO VISIBILITY. WIND
SPEEDS ARE IN MILES-PER-HOUR.



USA.gov is the U.S. government's official web portal to all federal, state and local government web resources and services.